Location: Northcutt
(34.7304°N, 84.4305°W)
Time: 16:59:25
(UTC+00:00)

SR - Pass Details

Date: 10 October 2022
Orbit: 577 x 874 km, 66.7° (Epoch: 05 December)

Event Time Altitude Azimuth Distance (km) Brightness Sun altitude
Rises 11:12:02 0° 313° (NW) 3,190 - -6.4°
Exits shadow 11:12:06 - 313° (NW) 3,167 ? -6.4°
Reaches altitude 10° 11:15:25 10° 291° (WNW) 2,193 ? -5.7°
Maximum altitude 11:18:12 15° 257° (WSW) 1,810 ? -5.2°
Drops below altitude 10° 11:20:53 10° 222° (SW) 2,077 ? -4.6°
Sets 11:23:58 0° 199° (SSW) 2,924 ? -4.0°
